Orlando, FL

9:51 PM EDT on March 26, 2017 (GMT -0400)
Executive

Weather History for KORL - December, 2012

Change the Weather History Date:

Saturday, December 8, 2012

  Actual Average Record
Temperature  
Mean Temperature 72 °F -  
Max Temperature 81 °F 72 °F 84 °F (2013)
Min Temperature 62 °F 54 °F 35 °F (2010)
Cooling Degree Days 6    
Growing Degree Days 22 (Base 50)    
Moisture  
Dew Point 64 °F    
Average Humidity 87    
Maximum Humidity 100    
Minimum Humidity 56    
Precipitation  
Precipitation 0.00 in - - ()
Sea Level Pressure  
Sea Level Pressure 30.04 in    
Wind  
Wind Speed 3 mph (ENE)    
Max Wind Speed 9 mph    
Max Gust Speed -    
Visibility 5 miles    
Events Fog    
Averages and records for this station are not official NWS values.
T = Trace of Precipitation, MM = Missing Value Source: NWS Daily Summary

Daily Weather History Graph

Daily Weather History Graph

Search for Another Location

Airport or City:

Trip Planner

Search our weather history database for the weather conditions in past years. The results will help you decide how hot, cold, wet, or windy it might be!

Date:

Astronomy

Dec. 08, 2012 Rise Set
Actual Time 7:06 AM EST 5:28 PM EST
Civil Twilight 6:40 AM EST 5:54 PM EST
Nautical Twilight 6:10 AM EST 6:23 PM EST
Astronomical Twilight 5:42 AM EST 6:52 PM EST
Moon 1:50 AM EST (12/8) 1:39 PM EST (12/8)
Length of Visible Light 11h 14m
Length of Day
10h 22m
Waning Crescent, 28% of the Moon is Illuminated
Dec 8
Waning Crescent
Dec 13
New
Dec 20
First Quarter
Dec 28
Full
Jan 4
Last Quarter

Hourly Weather History & Observations

Time (EST) Temp. Heat Index Dew Point Humidity Pressure Visibility Wind Dir Wind Speed Gust Speed Precip Events Conditions
12:43 AM 62.6 °F - 62.6 °F 100% 30.02 in 0.2 mi NE 4.6 mph - N/A Fog Fog
12:53 AM 63.0 °F - 62.1 °F 97% 30.02 in 0.5 mi Calm Calm - N/A Fog Fog
1:15 AM 62.6 °F - 62.6 °F 100% 30.01 in 0.2 mi NE 3.5 mph - N/A Fog Fog
1:28 AM 62.6 °F - 62.6 °F 100% 30.01 in 0.5 mi NNE 3.5 mph - N/A Fog Fog
1:46 AM 62.6 °F - 62.6 °F 100% 30.00 in 0.2 mi NE 3.5 mph - N/A Fog Fog
1:53 AM 62.1 °F - 62.1 °F 100% 30.01 in 0.2 mi ENE 4.6 mph - N/A Fog Fog
2:53 AM 62.1 °F - 62.1 °F 100% 30.02 in 0.5 mi Calm Calm - N/A Fog Fog
3:53 AM 62.1 °F - 62.1 °F 100% 30.01 in 0.5 mi NNE 5.8 mph - N/A Fog Fog
4:53 AM 63.0 °F - 63.0 °F 100% 30.01 in 0.5 mi NNE 4.6 mph - N/A Fog Fog
5:53 AM 62.1 °F - 62.1 °F 100% 30.03 in 0.8 mi NNE 4.6 mph - N/A   Mist
6:08 AM 62.6 °F - 62.6 °F 100% 30.02 in 2.0 mi NNE 3.5 mph - N/A   Overcast
6:33 AM 62.6 °F - 62.6 °F 100% 30.03 in 4.0 mi North 4.6 mph - N/A   Overcast
6:53 AM 63.0 °F - 63.0 °F 100% 30.04 in 1.0 mi Calm Calm - N/A   Overcast
7:23 AM 62.6 °F - 62.6 °F 100% 30.05 in 0.8 mi NNE 3.5 mph - N/A   Overcast
7:53 AM 63.0 °F - 62.1 °F 97% 30.07 in 0.8 mi NE 3.5 mph - N/A   Overcast
8:24 AM 62.6 °F - 62.6 °F 100% 30.06 in 1.5 mi ENE 3.5 mph - N/A   Overcast
8:53 AM 64.9 °F - 63.0 °F 93% 30.08 in 2.0 mi ENE 3.5 mph - N/A   Overcast
9:03 AM 64.4 °F - 62.6 °F 94% 30.07 in 2.0 mi East 5.8 mph - N/A   Overcast
9:32 AM 66.2 °F - 64.4 °F 94% 30.08 in 3.0 mi ENE 4.6 mph - N/A   Overcast
9:53 AM 69.1 °F - 64.9 °F 87% 30.09 in 3.0 mi ENE 4.6 mph - N/A   Overcast
10:53 AM 72.0 °F - 64.9 °F 78% 30.08 in 10.0 mi ENE 4.6 mph - N/A   Overcast
11:53 AM 75.0 °F - 66.0 °F 73% 30.06 in 10.0 mi SSW 3.5 mph - N/A   Overcast
12:13 PM 75.2 °F - 66.2 °F 73% 30.04 in 10.0 mi Calm Calm - N/A   Mostly Cloudy
12:35 PM 77.0 °F - 66.2 °F 69% 30.03 in 10.0 mi Calm Calm - N/A   Mostly Cloudy
12:53 PM 75.9 °F - 64.9 °F 69% 30.03 in 10.0 mi Calm Calm - N/A   Mostly Cloudy
1:25 PM 77.0 °F - 64.4 °F 65% 30.01 in 10.0 mi Calm Calm - N/A   Mostly Cloudy
1:53 PM 77.0 °F - 64.9 °F 66% 30.01 in 10.0 mi South 3.5 mph - N/A   Partly Cloudy
2:53 PM 81.0 °F 82.5 °F 64.0 °F 56% 30.01 in 10.0 mi Calm Calm - N/A   Overcast
3:53 PM 80.1 °F 81.5 °F 63.0 °F 56% 30.01 in 10.0 mi South 4.6 mph - N/A   Mostly Cloudy
4:53 PM 79.0 °F - 62.1 °F 56% 30.01 in 10.0 mi Calm Calm - N/A   Scattered Clouds
5:53 PM 73.0 °F - 66.0 °F 79% 30.02 in 10.0 mi East 9.2 mph - N/A   Clear
6:53 PM 71.1 °F - 66.0 °F 84% 30.04 in 10.0 mi East 8.1 mph - N/A   Clear
7:53 PM 70.0 °F - 66.0 °F 87% 30.07 in 10.0 mi ENE 4.6 mph - N/A   Partly Cloudy
8:53 PM 69.1 °F - 66.0 °F 90% 30.07 in 10.0 mi ENE 6.9 mph - N/A   Partly Cloudy
9:53 PM 69.1 °F - 66.9 °F 93% 30.08 in 10.0 mi ENE 4.6 mph - N/A   Overcast
10:53 PM 70.0 °F - 66.9 °F 90% 30.08 in 10.0 mi East 4.6 mph - N/A   Overcast
11:53 PM 70.0 °F - 66.9 °F 90% 30.07 in 10.0 mi Calm Calm - N/A   Overcast